Torna al catalogo

COSMOS 2251 DEB

AttivoLEO
NORAD 35650·DEBRIS·🇷🇺 Russia

Lanciato Jun 16, 1993 da Plesetsk Cosmodrome

Loading…

Prossimi Passaggi (prossime 24 ore)

TLE

AggiornatoSource: Space-Track

Epoca: Sep 14, 2026, 06:46 UTC

1 35650U 93036ANR 26257.28214330  .00009085  00000-0  91202-3 0  9994
2 35650  74.0437 189.5270 0016078 189.3603 326.6689 14.91310055917321

Traccia COSMOS 2251 DEB in tempo reale con AllMySat

Download on the App Store